Location: Newark
(60.7728°N, 46.2261°E)
Time: 13:05:57
(UTC+00:00)

ISS - Pass Details

Date: 25 September 2019
Orbit: 411 x 421 km, 51.6° (Epoch: 21 October)

Event Time Altitude Azimuth Distance (km) Brightness Sun altitude
Rises 17:00:24 0° 238° (WSW) 2,344 0.4 -16.4°
Reaches altitude 10° 17:02:57 10° 218° (SW) 1,482 -0.9 -16.7°
Enters shadow 17:04:31 16° 191° (S) 1,163 -1.7 -16.9°
